Weather in Droskovo

Russia / Oryol Oblast     52°29′28″N   37°04′37″E
В апреле 2022 года жителям России запретили посещать сайт meteo.paraplan.net по решению Генеральной прокуратуры. Аудитория сайта уменьшилась в 10 раз. Владельцы сайта не видят смысла в поддержке погодного сервера в таких условиях. Сайт будет закрыт в октябре.
temp.,
°C
wind,
m/s
gust,
m/s
humid.,
%
clouds,
%
prec.,
mm/h
press.,
hPa
HPBL,
m
30 september, fri
fri3000:00+10sse3584100 0.0 101582
03:00+11sse3794100 0.0 1015132
06:00+11sse3896100 0.0 1015161
09:00+12sse4992100 0.0 1015255
12:00+13s51194100 1.3 1016453
15:00+15sse478539 1.4 1016319
18:00+14ese229220 1.3 101620
21:00+14ssw1294100 1.4 101615
1 october, sat
sat100:00+13s2296100 0.0 101622
03:00+13s2296100 0.4 101616
06:00+13s2297100 0.0 101640
09:00+14s3495100 3.2 1015181
12:00+19ssw46789 0.0 1014608
15:00+19sw5872100 1.3 1013643
18:00+17sw61383100 3.1 1012420
21:00+14wsw61282100 3.8 1012553
2 october, sun
sun200:00+13wsw498699 0.0 1012488
03:00+11sw359313 0.0 1012169
06:00+11wsw2392100 0.0 1012135
09:00+11ssw2393100 0.5 1011155
12:00+12ese2393100 1.8 1009169
15:00+16e4883100 2.3 1006587
18:00+15sse41092100 2.1 1003293
21:00+15se61393100 4.7 1001630
3 october, mon
mon300:00+14sse71494100 3.8 997775
03:00+14sse61194100 5.8 995776
06:00+10w5896100 1.2 996356
09:00+9w6991100 1.9 997722
12:00+8wsw7988100 0.1 1001858
15:00+9wsw6987100 0.1 1003741
18:00+8wsw6890100 0.9 1006989
21:00+8sw488898 2.3 1008815
4 october, tue
tue400:00+7ssw6128995 0.0 1009434
03:00+7ssw49945 0.1 1011298
06:00+6ssw499713 0.0 1012250
09:00+8ssw598934 0.0 1013442
12:00+12ssw687473 0.2 10141038
15:00+11sw587915 0.7 1015827
18:00+9s348368 0.0 101683
21:00+10s51086100 0.2 1016486